Wind_Speed
8 9 9 9 9 9 10 10 10 9 9 10 10 11 12 13 14 16 17 10 8 8 8 5 6 5 5 3 4 3 3 3 5 5 5 2 1 4 5 9 8 10 20 22 22
9 10 10 11 11 11 11 12 12 12 12 12 12 13 14 16 18 21 11 11 9 9 9 8 8 7 4 4 4 4 4 7 6 5 5 5 5 15 5 11 12 21 26 27 27
11 11 12 12 13 14 14 14 14 14 14 14 14 15 16 17 19 2 3 8 5 10 11 10 9 8 5 5 7 6 6 5 8 17 13 7 7 11 4 8 27 22 24 20 23
14 14 14 15 16 15 16 16 16 16 16 16 15 16 17 15 6 1 8 14 10 12 14 12 9 5 4 5 8 3 13 13 6 8 6 6 14 8 12 35 35 34 32 34 32
15 16 16 17 17 18 18 18 18 17 17 17 17 17 18 9 19 22 20 15 12 13 16 15 13 6 4 5 4 5 6 15 24 21 21 22 27 13 21 46 42 40 35 34 31
15 15 16 17 18 19 19 20 20 20 19 18 17 17 19 10 15 12 11 12 13 14 16 18 8 11 7 7 7 3 8 12 14 17 19 11 28 4 31 36 37 35 35 31 28
14 14 15 16 18 19 19 20 22 22 21 20 19 19 22 31 23 25 26 26 20 18 18 17 19 9 2 4 5 6 7 9 7 12 7 11 10 11 36 31 33 38 33 30 30
11 12 14 15 16 18 19 21 22 22 21 20 19 18 20 25 26 27 27 28 23 18 17 15 13 14 13 7 3 3 1 5 2 5 4 11 10 22 26 21 27 27 26 33 38
10 11 13 14 16 18 19 20 21 21 20 18 17 14 12 19 20 23 26 24 18 18 13 11 7 7 3 2 4 3 6 7 10 12 6 8 10 14 23 16 20 31 46 47 51
11 13 14 15 16 19 18 19 18 18 15 11 14 5 18 14 11 12 13 16 12 9 7 8 6 3 2 4 7 9 6 6 7 7 6 6 17 14 36 35 33 38 47 51 53
13 13 15 16 17 20 19 17 8 5 5 10 5 8 6 13 11 11 10 11 9 7 6 4 4 9 20 13 5 3 6 12 8 8 4 20 23 18 24 27 37 38 36 46 47
14 16 15 17 19 21 17 10 10 9 11 16 23 29 32 15 6 13 9 9 7 6 6 4 7 17 2 2 6 6 11 18 14 15 5 14 21 18 19 24 33 38 41 34 43
16 16 16 17 21 19 17 14 17 13 5 12 19 16 16 17 12 13 12 7 5 6 9 12 10 5 6 3 8 4 7 17 14 6 5 10 13 7 9 13 27 37 43 35 39
16 19 18 17 17 11 15 16 17 15 4 7 3 2 3 4 3 6 16 6 3 9 5 6 4 6 3 7 9 15 11 13 10 6 7 5 15 6 8 10 9 25 25 27 23
18 19 18 16 13 14 13 13 13 8 6 4 2 1 1 5 3 1 10 6 5 5 3 7 2 2 4 10 7 10 5 7 3 4 5 1 3 1 4 6 11 9 10 17 21
20 17 17 17 15 10 9 8 7 3 8 3 1 1 1 2 2 4 4 5 1 2 3 7 2 6 8 7 9 2 2 4 4 2 5 9 8 20 4 4 2 9 31 21 19
13 14 14 15 8 5 4 4 2 7 4 2 1 1 2 4 3 4 5 5 6 2 4 2 5 4 5 3 1 3 4 3 3 1 9 3 3 16 10 16 8 10 17 7 18
13 13 14 14 16 9 6 2 9 4 7 1 2 3 4 4 4 3 4 4 6 3 2 4 15 6 5 9 9 8 9 6 7 5 12 3 7 18 7 10 27 17 14 7 20
21 20 20 17 13 16 8 7 8 6 5 3 1 2 3 2 3 1 5 5 7 10 7 4 10 3 6 4 4 4 6 3 3 5 3 12 14 15 18 7 4 3 8 18 25
19 17 18 17 14 20 6 21 6 5 1 1 4 6 4 3 1 2 5 2 5 8 1 4 11 6 2 3 5 7 2 2 1 4 8 7 14 12 22 26 7 9 17 36 38
15 6 7 9 19 13 9 11 11 21 19 6 3 7 7 4 4 5 2 5 5 2 5 2 3 6 1 6 11 2 4 4 2 5 12 18 13 10 22 21 9 11 28 28 29
7 3 5 16 10 7 14 7 11 25 25 7 8 18 18 16 19 18 17 10 5 5 4 9 5 11 19 6 6 5 12 7 10 10 10 11 11 12 13 16 25 26 28 31 30
6 5 5 19 7 10 11 7 15 19 20 4 6 8 13 15 11 13 13 6 13 5 3 4 3 4 6 6 4 2 2 4 10 5 12 11 7 8 15 17 27 26 30 31 32
4 1 5 15 20 7 13 15 16 19 14 14 14 15 15 20 17 13 4 4 3 1 7 3 5 12 15 15 8 11 11 11 13 9 13 13 20 12 14 14 19 19 25 31 33
5 3 3 3 9 12 12 9 15 11 2 11 4 9 9 10 10 10 8 4 2 3 3 2 14 16 18 12 6 7 12 17 16 16 11 19 19 5 10 13 18 14 21 22 29
4 2 2 4 9 5 4 13 20 24 15 20 18 18 15 15 12 16 6 4 5 3 2 3 3 5 11 18 13 19 17 18 21 20 15 18 9 2 4 9 12 12 14 22 25
3 5 2 5 1 2 2 4 4 5 8 7 9 6 9 5 4 2 5 8 6 2 2 1 3 5 18 12 8 12 21 20 17 17 2 8 3 2 4 8 15 17 11 19 18
Wind_Direction
309 312 312 314 314 314 314 315 316 317 319 321 323 324 323 323 318 309 299 283 257 238 238 233 220 219 208 204 199 163 64 243 252 184 250 255 266 276 264 267 245 228 249 274 281
297 300 302 304 306 306 305 305 306 307 311 313 315 317 317 320 316 308 302 263 246 235 226 226 215 203 189 194 193 152 146 228 215 209 245 289 250 288 266 269 263 260 267 275 278
293 295 296 297 297 298 298 298 297 298 300 303 308 312 315 324 322 339 47 20 264 241 229 223 216 201 203 197 198 184 210 216 244 246 268 282 280 273 197 276 267 261 293 290 280
285 288 289 292 293 292 292 293 294 294 294 295 299 304 308 316 303 313 308 312 297 243 229 221 203 192 195 208 210 231 242 240 255 256 280 270 291 265 221 270 287 287 291 286 281
288 289 290 289 289 289 289 288 287 287 287 289 294 298 302 290 270 286 289 287 273 251 234 227 215 203 200 214 214 220 243 253 263 272 274 281 272 254 260 283 289 289 290 288 284
288 289 290 290 290 288 287 287 285 283 282 282 283 284 285 259 283 288 287 286 275 253 241 229 216 231 267 229 197 280 265 273 284 274 265 228 270 210 268 280 286 287 292 291 285
292 292 292 293 291 290 289 287 284 282 280 277 277 274 271 264 275 277 279 279 269 257 250 244 237 233 222 280 262 286 312 312 224 262 231 222 295 231 274 285 286 286 285 289 289
308 306 305 301 298 296 294 289 285 283 280 275 272 269 259 276 271 264 262 260 259 252 250 251 241 244 249 273 318 304 179 302 5 131 261 161 257 273 289 275 278 284 286 289 287
317 320 320 314 312 308 308 299 293 285 279 272 263 245 261 263 265 265 258 253 256 249 239 239 201 218 225 91 5 332 250 224 300 222 197 186 254 254 282 296 267 275 284 288 288
321 327 330 330 328 325 327 318 302 289 281 268 240 236 246 249 254 257 248 233 227 215 206 193 178 119 28 116 240 234 236 252 244 277 182 229 252 273 279 288 275 275 281 283 285
316 321 330 330 332 334 335 343 329 301 283 230 266 236 261 235 247 247 234 207 199 182 173 166 125 201 221 202 243 183 238 252 264 264 299 279 276 270 271 272 278 280 273 278 281
312 316 324 326 333 334 339 1 344 304 303 268 264 253 256 253 262 242 216 179 175 200 114 49 223 231 48 148 235 249 269 272 276 263 249 272 273 278 264 255 258 270 279 277 289
290 298 306 312 320 328 339 344 341 334 266 271 252 254 260 255 237 235 205 200 161 174 201 213 237 201 184 160 239 209 235 264 266 303 253 298 280 233 274 253 259 263 270 280 287
283 285 290 297 309 319 329 335 339 335 287 273 259 246 219 208 248 225 197 209 215 231 194 231 290 204 134 209 202 264 226 256 271 347 279 2 297 174 233 263 276 271 284 291 311
274 283 289 303 290 302 310 323 330 331 293 267 209 269 204 186 159 265 185 191 196 184 144 250 196 163 171 220 158 240 176 237 191 203 318 274 281 99 101 229 272 295 288 331 356
273 275 279 283 279 298 296 313 338 8 249 302 145 253 182 239 210 132 163 174 159 180 224 243 166 181 218 217 187 108 98 57 46 96 281 188 179 295 157 243 274 318 312 332 356
281 276 270 268 269 297 280 315 346 225 331 307 294 306 261 229 232 181 161 170 188 218 236 210 216 219 174 221 117 139 79 313 327 40 232 90 154 254 292 281 267 279 288 298 3
271 272 268 261 265 251 235 78 241 199 228 335 310 8 253 180 260 196 131 236 224 156 144 213 294 179 180 195 198 184 171 176 221 253 283 98 243 266 250 282 283 282 277 312 360
272 270 262 250 234 233 199 217 232 183 214 233 141 230 261 272 246 209 233 235 215 182 193 198 262 184 190 182 180 179 179 237 313 264 254 266 274 298 291 304 0 327 322 345 341
269 266 259 268 224 216 218 237 229 206 152 292 219 190 260 228 184 243 202 210 254 199 329 264 265 189 209 158 216 183 211 233 349 253 250 228 256 269 290 289 308 323 347 342 339
267 263 253 208 210 192 226 240 249 256 264 247 248 252 249 236 222 267 214 277 232 213 188 227 247 272 119 204 207 196 234 222 237 207 260 267 259 256 272 296 15 353 349 9 11
202 219 220 192 194 230 235 232 245 262 266 278 259 259 260 267 272 266 247 211 214 182 181 221 203 240 255 235 221 197 253 241 241 252 246 269 265 297 325 339 23 40 19 11 10
182 240 208 191 227 229 246 258 252 265 267 266 264 257 268 267 279 247 246 247 268 280 292 8 230 286 304 324 43 123 292 276 279 273 246 262 269 304 7 30 22 19 8 8 8
175 231 209 222 242 256 254 262 265 258 258 254 265 265 275 276 265 266 263 311 3 205 294 240 228 257 270 266 264 273 271 275 268 263 287 269 285 299 355 359 357 6 13 2 359
197 234 205 229 241 246 248 266 271 276 215 302 259 246 275 285 277 261 251 261 293 330 345 324 269 268 268 287 317 297 290 287 265 265 265 287 286 24 11 353 353 356 359 2 355
191 200 260 275 289 300 234 245 256 268 275 271 267 276 279 269 259 283 288 195 237 357 25 128 288 337 298 293 292 282 271 260 266 278 264 259 262 20 328 332 334 335 346 343 344
226 241 249 259 338 146 220 285 313 12 60 43 14 326 295 310 5 339 287 282 277 297 241 252 270 265 271 285 298 278 253 253 255 264 267 252 114 217 280 314 331 321 328 337 334
Height
1552 1551 1551 1550 1549 1548 1547 1546 1545 1544 1543 1542 1541 1539 1538 1536 1535 1533 1531 1531 1531 1531 1532 1533 1534 1535 1535 1536 1537 1538 1547 1553 1542 1539 1528 1522 1522 1519 1518 1518 1516 1515 1511 1510 1509
1552 1551 1550 1549 1548 1547 1546 1545 1544 1543 1542 1541 1539 1538 1536 1534 1532 1529 1529 1527 1528 1529 1530 1531 1532 1533 1534 1535 1536 1537 1548 1539 1528 1526 1523 1521 1520 1517 1517 1514 1510 1509 1507 1507 1506
1551 1550 1549 1548 1547 1546 1545 1544 1543 1542 1541 1539 1538 1537 1535 1533 1531 1527 1526 1527 1528 1528 1529 1529 1530 1531 1532 1533 1533 1532 1536 1526 1522 1521 1521 1519 1516 1515 1513 1510 1502 1503 1502 1503 1502
1549 1548 1547 1546 1545 1544 1543 1542 1541 1540 1539 1538 1536 1535 1533 1533 1537 1526 1526 1526 1526 1526 1527 1528 1529 1530 1531 1531 1528 1531 1523 1521 1518 1519 1519 1518 1513 1510 1509 1499 1499 1497 1497 1495 1494
1546 1546 1545 1544 1542 1541 1540 1538 1537 1537 1536 1535 1534 1533 1532 1530 1526 1525 1524 1524 1524 1524 1525 1526 1528 1529 1530 1527 1526 1525 1519 1517 1515 1515 1515 1515 1506 1508 1500 1492 1492 1492 1490 1487 1487
1543 1543 1542 1541 1539 1538 1537 1535 1534 1533 1532 1532 1531 1531 1529 1527 1522 1522 1522 1521 1521 1522 1522 1523 1524 1525 1525 1524 1524 1519 1517 1514 1512 1512 1511 1511 1499 1504 1487 1489 1487 1486 1483 1481 1480
1541 1540 1539 1538 1536 1534 1533 1531 1530 1529 1528 1527 1528 1527 1525 1517 1519 1519 1519 1518 1517 1518 1518 1520 1522 1524 1522 1520 1519 1518 1519 1513 1506 1503 1504 1503 1507 1496 1482 1485 1483 1478 1477 1476 1474
1539 1538 1537 1535 1533 1531 1529 1527 1525 1524 1523 1523 1522 1522 1516 1512 1512 1512 1512 1512 1512 1514 1516 1517 1519 1521 1522 1520 1518 1519 1519 1521 1501 1502 1500 1501 1506 1478 1480 1479 1476 1473 1472 1471 1469
1538 1537 1535 1534 1531 1529 1526 1523 1521 1519 1518 1518 1518 1519 1512 1505 1505 1506 1507 1507 1509 1510 1512 1515 1518 1519 1520 1523 1527 1524 1527 1522 1511 1494 1498 1500 1494 1476 1475 1473 1472 1468 1462 1461 1456
1537 1536 1534 1532 1530 1527 1524 1520 1516 1514 1514 1514 1514 1519 1506 1502 1501 1501 1501 1503 1506 1507 1511 1513 1515 1519 1523 1526 1531 1525 1526 1519 1514 1494 1493 1495 1487 1478 1475 1470 1462 1459 1454 1449 1444
1535 1534 1533 1530 1528 1525 1523 1519 1518 1514 1510 1509 1509 1503 1500 1500 1500 1498 1498 1502 1504 1507 1510 1510 1517 1519 1503 1510 1505 1511 1515 1514 1504 1493 1494 1484 1475 1473 1469 1466 1452 1448 1445 1438 1433
1532 1531 1530 1529 1527 1525 1522 1521 1521 1520 1510 1503 1500 1500 1497 1496 1497 1495 1498 1501 1502 1506 1508 1516 1518 1501 1503 1508 1513 1514 1513 1506 1493 1489 1492 1483 1467 1464 1459 1452 1449 1439 1434 1434 1430
1530 1528 1528 1527 1525 1525 1524 1522 1519 1516 1512 1496 1490 1489 1492 1493 1491 1492 1496 1496 1498 1504 1504 1502 1496 1496 1503 1506 1508 1512 1514 1500 1499 1492 1488 1482 1455 1459 1446 1440 1436 1434 1426 1430 1427
1527 1526 1525 1525 1526 1523 1524 1523 1520 1517 1515 1497 1488 1487 1487 1489 1490 1487 1490 1496 1497 1498 1501 1503 1493 1495 1503 1502 1502 1500 1495 1496 1497 1501 1498 1485 1454 1448 1443 1438 1432 1425 1428 1425 1423
1521 1522 1522 1522 1523 1522 1524 1522 1521 1520 1527 1490 1487 1487 1487 1488 1488 1487 1486 1491 1491 1494 1498 1494 1493 1495 1499 1495 1494 1488 1483 1491 1493 1498 1497 1491 1497 1437 1439 1439 1429 1424 1421 1421 1422
1517 1518 1519 1520 1520 1521 1520 1522 1522 1528 1515 1489 1485 1486 1488 1487 1486 1486 1487 1489 1492 1492 1493 1490 1486 1489 1486 1483 1484 1486 1487 1494 1503 1499 1502 1480 1488 1404 1441 1432 1425 1422 1421 1424 1423
1513 1513 1515 1518 1519 1520 1519 1522 1526 1519 1493 1488 1487 1488 1488 1487 1486 1486 1486 1488 1491 1490 1491 1486 1485 1478 1478 1483 1484 1487 1495 1509 1513 1524 1492 1476 1487 1435 1426 1425 1426 1423 1421 1422 1423
1510 1509 1509 1513 1518 1520 1519 1523 1521 1499 1495 1485 1488 1489 1491 1488 1486 1486 1487 1486 1483 1481 1489 1487 1473 1477 1476 1473 1475 1484 1485 1503 1500 1504 1472 1490 1471 1424 1426 1423 1417 1417 1420 1420 1420
1506 1504 1504 1506 1510 1516 1519 1514 1494 1494 1489 1486 1485 1488 1489 1488 1491 1491 1491 1484 1475 1476 1478 1485 1472 1464 1467 1467 1470 1477 1481 1471 1479 1473 1489 1459 1448 1430 1414 1416 1415 1416 1417 1421 1420
1501 1500 1496 1502 1504 1508 1512 1497 1494 1487 1487 1486 1487 1484 1486 1486 1489 1491 1486 1476 1472 1470 1469 1468 1470 1457 1458 1462 1464 1465 1466 1474 1485 1482 1472 1454 1446 1438 1417 1403 1416 1418 1419 1419 1418
1497 1496 1492 1491 1501 1502 1496 1488 1485 1485 1490 1488 1482 1482 1481 1482 1484 1482 1480 1480 1472 1468 1471 1472 1474 1462 1462 1464 1458 1465 1466 1467 1464 1465 1454 1448 1436 1424 1416 1413 1425 1427 1422 1424 1421
1491 1494 1490 1492 1496 1494 1486 1483 1485 1479 1484 1484 1478 1477 1480 1477 1479 1477 1473 1470 1468 1467 1470 1470 1463 1469 1455 1452 1451 1452 1453 1456 1456 1445 1443 1437 1433 1422 1421 1423 1434 1441 1436 1429 1423
1486 1488 1489 1486 1489 1485 1482 1480 1482 1478 1478 1479 1475 1475 1473 1474 1475 1469 1468 1464 1466 1468 1465 1467 1466 1462 1457 1451 1456 1457 1454 1454 1454 1457 1443 1442 1432 1423 1432 1441 1444 1442 1443 1436 1430
1487 1484 1484 1483 1482 1483 1481 1477 1476 1472 1470 1473 1473 1473 1473 1471 1469 1465 1467 1467 1464 1465 1465 1469 1464 1462 1457 1451 1454 1451 1451 1452 1455 1443 1435 1436 1431 1427 1443 1446 1447 1442 1438 1441 1437
1484 1483 1482 1482 1480 1480 1481 1475 1473 1471 1469 1470 1469 1468 1470 1470 1467 1466 1466 1466 1464 1462 1461 1462 1456 1455 1447 1451 1459 1458 1457 1453 1450 1446 1444 1431 1431 1444 1453 1453 1453 1449 1446 1442 1440
1481 1483 1480 1481 1479 1478 1474 1470 1471 1463 1471 1467 1469 1467 1468 1468 1469 1466 1469 1470 1464 1463 1464 1462 1462 1465 1459 1452 1455 1451 1447 1441 1439 1434 1433 1432 1432 1453 1451 1451 1449 1446 1445 1444 1437
1478 1480 1481 1476 1476 1477 1473 1471 1471 1472 1470 1471 1472 1470 1469 1469 1471 1469 1469 1470 1469 1468 1466 1467 1464 1462 1453 1453 1456 1452 1437 1434 1426 1421 1434 1432 1445 1448 1448 1446 1441 1440 1439 1436 1431